Location: Killam
(52.7910°N, 111.8608°W)
Time: 11:59:49
(UTC+00:00)

FENGYUN 1C DEB - Pass Details

Date: 28 May 2024
Orbit: 795 x 992 km, 98.4° (Epoch: 16 June)

Event Time Altitude Azimuth Distance (km) Brightness Sun altitude
Rises 05:53:02 0° 16° (NNE) 3,319 ? -13.0°
Reaches altitude 10° 05:55:22 10° 18° (NNE) 2,394 ? -13.2°
Maximum altitude 06:00:38 74° 104° (ESE) 857 ? -13.4°
Enters shadow 06:05:03 16° 188° (S) 2,065 ? -13.7°
